Meath Environmental Platform

Observations

Time Sensor AQI SAQ Temp °C Hum % Pres Pa CO μg/m³ H₂S μg/m³ NO μg/m³ NO₂ μg/m³ O₃ μg/m³ SO₂ μg/m³ CO₂e PPM VOC PPM PM1 μg/m³ PM2.5 μg/m³ PM4 μg/m³ PM10 μg/m³ TPS µm
Thursday 13 August 2026
11:47 Trim Patrick St 2 30.1 50 69,532 0 0 0.67 12.36 65.08 16.29 2.86 7.18 7.9
11:46 Trim Market St 2 31.2 47 61,818 0 0 0.51 12.67 65.99 0 0 2.05 2.26
11:46 Trim Patrick St 2 30.1 50 69,525 0 0 0.72 12.8 67.52 16.23 2 7.19 7.91
11:45 Trim Patrick St 2 30.2 50 69,549 0 0 0.67 12.36 63.9 15.39 2 7.21 7.93
11:44 Trim Patrick St 2 30.1 50 69,549 0 0 0.65 11.8 60.55 15.7 2 7.21 7.93
11:43 Trim Patrick St 2 30.2 50 69,523 0 0 0.65 10.61 61.52 15.53 2 6.42 7.06
11:42 Trim Market St 2 31.2 48 60,781 0 0 0.51 12.63 55.15 0 0.71 2.55 2.8
11:42 Trim Patrick St 2 30.2 50 69,553 0 0 0.64 12.93 64.13 16.14 2 7.2 7.92
11:41 Trim Market St 2 31.1 48 60,696 0 0 0.48 12.48 51.8 0 1.43 3.57 4.5
11:41 Trim Patrick St 2 30.1 50 69,549 0 0 0.65 12.75 63.33 15.53 2.86 7.2 7.92
11:40 Trim Patrick St 2 30.1 50 69,551 0 0 0.71 11.33 60.07 15.51 3.71 7.95 8.74
11:39 Trim Market St 2 31.1 48 60,528 0.08 0 0.53 13.34 60.6 0 0 3.04 3.35
11:39 Trim Patrick St 2 30.1 50 69,553 0 0 0.75 12.78 61.77 15.15 2 7.17 7.89
11:38 Trim Patrick St 2 30.1 50 69,553 0 0 0.75 12.78 61.52 16.04 2 7.18 7.9
11:37 Trim Patrick St 2 30.2 50 69,553 0 0 0.74 12.11 62.57 15.71 2.86 7.2 7.92
11:36 Trim Patrick St 2 30.2 50 69,555 0 0 0.76 11.43 61.78 15.72 2 6.44 7.08
11:35 Trim Market St 2 31.1 48 60,722 0 0 0.64 13.14 21.06 0 1.43 4.6 5.26
11:35 Trim Patrick St 2 30.2 50 69,557 0 0 0.76 12.08 60.88 15.9 2.86 7.96 8.76
11:34 Trim Patrick St 2 30.2 50 69,561 0 0 0.74 12.15 61.27 15.71 2.86 7.95 8.75
11:33 Trim Patrick St 2 30.3 50 69,567 0 0 0.75 12.44 59.83 15.67 2 7.18 7.9